| time (UTC) | temp F | wind direction | speed knots | gust knots | rain 1hr in | rain 24hr in | rain mn in | humidity % | barometer mb |
| 20260504174515 | 52 | 0.0 | 0.0 | 0.00 | 0.01 | 0.01 | 89 | 1006.7 | |
| 20260504173535 | 51 | 0.0 | 0.9 | 0.01 | 0.01 | 0.01 | 91 | 1006.9 | |
| 20260504172515 | 51 | 0.0 | 0.0 | 0.01 | 0.01 | 0.01 | 91 | 1007.0 | |
| 20260504171515 | 51 | 0.0 | 0.0 | 0.01 | 0.01 | 0.01 | 91 | 1007.0 | |
| 20260504170515 | 50 | 0.0 | 1.7 | 0.01 | 0.01 | 0.01 | 90 | 1007.1 | |
| 20260504150517 | 57 | 248 | 1.7 | 3.5 | 0.00 | 0.00 | 0.00 | 60 | 1006.5 |
| 20260504140516 | 56 | 225 | 3.5 | 8.7 | 0.00 | 0.00 | 0.00 | 61 | 1006.6 |
| 20260504130516 | 52 | 225 | 1.7 | 7.0 | 0.00 | 0.00 | 0.00 | 70 | 1007.0 |
| 20260504110537 | 44 | 0.0 | 0.9 | 0.00 | 0.01 | 0.00 | 86 | 1008.1 | |
| 20260504100517 | 38 | 0.0 | 0.0 | 0.00 | 0.01 | 0.00 | 88 | 1008.2 | |
| 20260504081516 | 39 | 225 | 1.7 | 2.6 | 0.00 | 0.03 | 0.00 | 86 | 1008.3 |
| 20260504080536 | 39 | 225 | 0.9 | 1.7 | 0.00 | 0.03 | 0.00 | 84 | 1008.2 |
| 20260504050515 | 31 | 0.0 | 0.0 | 0.00 | 0.03 | 0.00 | 92 | 1008.3 | |
| 20260504045515 | 31 | 0.0 | 0.0 | 0.00 | 0.03 | 0.00 | 92 | 1008.3 | |
| 20260504044515 | 31 | 0.0 | 0.9 | 0.00 | 0.03 | 0.00 | 91 | 1008.4 | |
| 20260504043515 | 31 | 0.0 | 0.0 | 0.00 | 0.03 | 0.00 | 91 | 1008.4 | |
| 20260504042538 | 31 | 0.0 | 1.7 | 0.00 | 0.03 | 0.00 | 91 | 1008.5 | |
| 20260504041515 | 31 | 0.0 | 0.0 | 0.00 | 0.03 | 0.00 | 91 | 1008.5 | |
| 20260504040515 | 31 | 0.0 | 0.9 | 0.00 | 0.03 | 0.00 | 91 | 1008.4 | |
| 20260504035516 | 32 | 0.0 | 0.0 | 0.00 | 0.04 | 0.04 | 91 | 1008.4 | |
| 20260504034516 | 32 | 0.0 | 0.0 | 0.00 | 0.04 | 0.04 | 90 | 1008.4 | |
| 20260504033515 | 32 | 0.0 | 0.0 | 0.00 | 0.04 | 0.04 | 89 | 1008.4 | |
| 20260504032515 | 32 | 0.0 | 0.0 | 0.00 | 0.04 | 0.04 | 89 | 1008.4 | |
| 20260504031516 | 33 | 0.0 | 0.0 | 0.00 | 0.04 | 0.04 | 89 | 1008.5 | |
| 20260504030516 | 33 | 0.0 | 0.0 | 0.00 | 0.04 | 0.04 | 89 | 1008.5 | |
| 20260504025515 | 33 | 0.0 | 0.0 | 0.00 | 0.05 | 0.04 | 88 | 1008.4 | |
| 20260504024535 | 33 | 0.0 | 0.0 | 0.00 | 0.05 | 0.04 | 88 | 1008.3 | |
| 20260504023516 | 34 | 0.0 | 0.0 | 0.00 | 0.05 | 0.04 | 87 | 1008.3 | |
| 20260504022515 | 34 | 0.0 | 0.0 | 0.00 | 0.05 | 0.04 | 87 | 1008.4 | |
| 20260504021515 | 35 | 0.0 | 0.0 | 0.00 | 0.05 | 0.04 | 86 | 1008.5 | |
| 20260504020515 | 35 | 0.0 | 0.0 | 0.00 | 0.05 | 0.04 | 85 | 1008.4 | |
| 20260504015515 | 35 | 0.0 | 1.7 | 0.00 | 0.06 | 0.04 | 84 | 1008.5 | |
| 20260504014515 | 36 | 0.0 | 0.0 | 0.00 | 0.06 | 0.04 | 83 | 1008.5 | |
| 20260504013515 | 37 | 0.0 | 0.0 | 0.00 | 0.06 | 0.04 | 82 | 1008.5 | |
| 20260504012515 | 37 | 0.0 | 0.0 | 0.00 | 0.06 | 0.04 | 82 | 1008.2 | |
| 20260504011515 | 38 | 0.0 | 0.0 | 0.00 | 0.07 | 0.04 | 81 | 1008.2 | |
| 20260504010515 | 38 | 0.0 | 0.0 | 0.00 | 0.08 | 0.04 | 80 | 1008.2 | |
| 20260504005515 | 39 | 0.0 | 0.0 | 0.00 | 0.09 | 0.04 | 79 | 1008.2 | |
| 20260504004515 | 40 | 0.0 | 0.0 | 0.00 | 0.10 | 0.04 | 77 | 1008.1 | |
| 20260504003515 | 41 | 0.0 | 0.0 | 0.00 | 0.10 | 0.04 | 78 | 1008.0 | |
| 20260504002515 | 42 | 113 | 0.9 | 1.7 | 0.00 | 0.11 | 0.04 | 78 | 1007.9 |
| 20260504001515 | 42 | 0.0 | 0.9 | 0.00 | 0.12 | 0.04 | 76 | 1007.9 | |
| 20260504000535 | 43 | 0.0 | 0.9 | 0.00 | 0.13 | 0.04 | 71 | 1007.8 | |
| 20260503235538 | 44 | 0.0 | 0.0 | 0.00 | 0.13 | 0.04 | 69 | 1007.8 | |
| 20260503234515 | 44 | 0.0 | 0.9 | 0.00 | 0.13 | 0.04 | 69 | 1007.8 | |
| 20260503233515 | 45 | 90 | 0.9 | 2.6 | 0.00 | 0.13 | 0.04 | 68 | 1007.7 |
| 20260503232535 | 46 | 0.0 | 2.6 | 0.00 | 0.13 | 0.04 | 66 | 1007.6 | |
| 20260503231535 | 46 | 0.0 | 0.0 | 0.00 | 0.13 | 0.04 | 68 | 1007.7 | |
| 20260503230535 | 46 | 0.0 | 0.0 | 0.00 | 0.13 | 0.04 | 68 | 1007.8 | |
| 20260503225515 | 46 | 0.0 | 0.9 | 0.00 | 0.13 | 0.04 | 65 | 1007.8 | |
| 20260503224535 | 47 | 45 | 0.9 | 1.7 | 0.00 | 0.13 | 0.04 | 67 | 1007.7 |
| 20260503223537 | 47 | 0.0 | 0.9 | 0.00 | 0.13 | 0.04 | 65 | 1007.6 | |
| 20260503222537 | 47 | 135 | 0.9 | 2.6 | 0.00 | 0.13 | 0.04 | 65 | 1007.8 |
| 20260503221517 | 47 | 158 | 0.9 | 3.5 | 0.00 | 0.13 | 0.04 | 63 | 1007.7 |
| 20260503220516 | 46 | 315 | 0.9 | 3.5 | 0.00 | 0.13 | 0.04 | 63 | 1007.6 |
| 20260503215516 | 46 | 270 | 0.9 | 1.7 | 0.00 | 0.13 | 0.04 | 64 | 1007.4 |
| 20260503214516 | 46 | 315 | 0.9 | 7.0 | 0.00 | 0.13 | 0.04 | 67 | 1007.6 |
| 20260503213516 | 46 | 0.0 | 1.7 | 0.00 | 0.13 | 0.04 | 66 | 1007.6 | |
| 20260503212536 | 47 | 0.0 | 1.7 | 0.00 | 0.13 | 0.04 | 68 | 1007.6 | |
| 20260503211536 | 47 | 90 | 0.9 | 2.6 | 0.00 | 0.13 | 0.04 | 61 | 1007.4 |
| 20260503210516 | 47 | 0.0 | 0.9 | 0.00 | 0.13 | 0.04 | 65 | 1007.4 | |
| 20260503205516 | 47 | 68 | 0.9 | 2.6 | 0.00 | 0.13 | 0.04 | 62 | 1007.3 |
| 20260503204515 | 47 | 45 | 0.9 | 1.7 | 0.00 | 0.13 | 0.04 | 63 | 1007.4 |
| 20260503203515 | 47 | 0.0 | 1.7 | 0.00 | 0.13 | 0.04 | 63 | 1007.4 | |
| 20260503202515 | 47 | 68 | 0.9 | 1.7 | 0.00 | 0.13 | 0.04 | 62 | 1007.4 |
| 20260503201515 | 47 | 0 | 1.7 | 6.1 | 0.00 | 0.13 | 0.04 | 58 | 1007.2 |
| 20260503200535 | 48 | 23 | 0.9 | 1.7 | 0.00 | 0.13 | 0.04 | 60 | 1007.2 |
| 20260503195515 | 48 | 0 | 0.9 | 6.1 | 0.00 | 0.13 | 0.04 | 61 | 1007.3 |
| 20260503194515 | 48 | 0 | 0.9 | 2.6 | 0.00 | 0.13 | 0.04 | 62 | 1007.3 |
| 20260503193536 | 48 | 68 | 0.9 | 2.6 | 0.00 | 0.13 | 0.04 | 60 | 1007.4 |
| 20260503192515 | 47 | 68 | 1.7 | 4.3 | 0.00 | 0.14 | 0.04 | 62 | 1007.5 |
| 20260503191515 | 47 | 45 | 0.9 | 3.5 | 0.00 | 0.14 | 0.04 | 58 | 1007.4 |
| 20260503190535 | 48 | 45 | 0.9 | 3.5 | 0.00 | 0.14 | 0.04 | 60 | 1007.5 |
| 20260503185515 | 48 | 23 | 1.7 | 3.5 | 0.00 | 0.14 | 0.04 | 61 | 1007.4 |
| 20260503184515 | 49 | 23 | 1.7 | 3.5 | 0.00 | 0.14 | 0.04 | 63 | 1007.5 |
| 20260503183515 | 48 | 45 | 0.9 | 3.5 | 0.00 | 0.14 | 0.04 | 61 | 1007.5 |
| 20260503182515 | 48 | 68 | 1.7 | 6.1 | 0.00 | 0.14 | 0.04 | 65 | 1007.4 |
| 20260503181515 | 47 | 113 | 0.9 | 3.5 | 0.00 | 0.14 | 0.04 | 65 | 1007.6 |
| 20260503180516 | 47 | 270 | 0.9 | 2.6 | 0.00 | 0.14 | 0.04 | 70 | 1007.6 |
| 20260503175535 | 47 | 315 | 1.7 | 3.5 | 0.00 | 0.14 | 0.04 | 67 | 1007.6 |